• In Hungary
  • List of Countries
  • For 7 days
  • Water Temperature
  • Satellite Maps
  • Weather Map
  • News
  • Weather Widgets
  • user-avatar
    Login

    Hourly Weather Internacionalnyy

    Today, 17 December, Sunday

    Time Temperature Precipitation Wind Pressure Humidity
    00:00 +3°C° 0 mm 7 mps 753 mmHg 88%
    01:00 +3°C° 0 mm 7 mps 753 mmHg 89%
    02:00 +3°C° 0 mm 7 mps 752 mmHg 90%
    03:00 +3°C° 0 mm 6 mps 752 mmHg 91%
    04:00 +3°C° 0 mm 6 mps 752 mmHg 91%
    05:00 +3°C° 0 mm 6 mps 752 mmHg 91%
    06:00 +3°C° 0 mm 6 mps 752 mmHg 91%
    07:00 +3°C° 0 mm 6 mps 752 mmHg 90%
    08:00 +3°C° 0 mm 6 mps 752 mmHg 90%
    09:00 +3°C° 0 mm 6 mps 753 mmHg 90%
    10:00 +3°C° 0 mm 6 mps 753 mmHg 86%
    11:00 +4°C° 0 mm 6 mps 753 mmHg 82%
    12:00 +5°C° 0 mm 6 mps 753 mmHg 78%
    13:00 +5°C° 0 mm 6 mps 752 mmHg 77%
    14:00 +7°C° 0 mm 5 mps 752 mmHg 76%
    15:00 +7°C° 0 mm 5 mps 752 mmHg 74%
    16:00 +7°C° 0 mm 5 mps 752 mmHg 76%
    17:00 +6°C° 0 mm 5 mps 752 mmHg 79%
    18:00 +6°C° 0 mm 5 mps 752 mmHg 81%
    19:00 +6°C° 0 mm 5 mps 752 mmHg 82%
    20:00 +5°C° 0 mm 5 mps 752 mmHg 83%
    21:00 +4°C° 0 mm 6 mps 752 mmHg 84%
    22:00 +4°C° 0 mm 6 mps 752 mmHg 84%
    23:00 +4°C° 0 mm 6 mps 752 mmHg 84%

    Tomorrow, 18 December, Monday

    Time Temperature Precipitation Wind Pressure Humidity
    00:00 +4°C° 0 mm 6 mps 752 mmHg 85%
    01:00 +4°C° 0.1 mm 6 mps 751 mmHg 85%
    02:00 +4°C° 0.1 mm 6 mps 751 mmHg 85%
    03:00 +4°C° 0.1 mm 6 mps 751 mmHg 86%
    04:00 +4°C° 0.1 mm 6 mps 751 mmHg 86%
    05:00 +4°C° 0.1 mm 7 mps 751 mmHg 86%
    06:00 +4°C° 0.1 mm 7 mps 750 mmHg 86%
    07:00 +4°C° 0 mm 7 mps 750 mmHg 86%
    08:00 +4°C° 0 mm 7 mps 750 mmHg 86%
    09:00 +4°C° 0 mm 7 mps 750 mmHg 86%
    10:00 +4°C° 0.4 mm 7 mps 750 mmHg 85%
    11:00 +5°C° 0.4 mm 7 mps 750 mmHg 84%
    12:00 +5°C° 0.4 mm 7 mps 750 mmHg 82%
    13:00 +5°C° 0.2 mm 7 mps 750 mmHg 81%
    14:00 +6°C° 0.2 mm 7 mps 750 mmHg 80%
    15:00 +7°C° 0.2 mm 6 mps 750 mmHg 79%
    16:00 +7°C° 0.1 mm 6 mps 750 mmHg 82%
    17:00 +7°C° 0.1 mm 6 mps 750 mmHg 84%
    18:00 +7°C° 0.1 mm 5 mps 751 mmHg 86%
    19:00 +6°C° 0.1 mm 5 mps 751 mmHg 87%
    20:00 +6°C° 0.1 mm 4 mps 751 mmHg 88%
    21:00 +6°C° 0.1 mm 4 mps 751 mmHg 89%
    22:00 +6°C° 0.7 mm 4 mps 751 mmHg 89%
    23:00 +5°C° 0.7 mm 4 mps 751 mmHg 89%

    Day after tomorrow, 19 December, Tuesday

    Time Temperature Precipitation Wind Pressure Humidity
    00:00 +5°C° 0.7 mm 3 mps 752 mmHg 89%
    01:00 +5°C° 0.1 mm 3 mps 752 mmHg 88%
    02:00 +5°C° 0.1 mm 2 mps 752 mmHg 87%
    03:00 +5°C° 0.1 mm 2 mps 752 mmHg 86%
    04:00 +5°C° 0.5 mm 2 mps 752 mmHg 87%
    05:00 +6°C° 0.5 mm 1 mps 752 mmHg 88%
    06:00 +5°C° 0.5 mm 1 mps 752 mmHg 88%
    07:00 +5°C° 0.7 mm 1 mps 752 mmHg 88%
    08:00 +5°C° 0.7 mm 1 mps 753 mmHg 87%
    09:00 +4°C° 0.7 mm 2 mps 753 mmHg 87%
    10:00 +4°C° 0.1 mm 2 mps 753 mmHg 83%
    11:00 +4°C° 0.1 mm 2 mps 753 mmHg 79%
    12:00 +4°C° 0.1 mm 3 mps 754 mmHg 75%
    13:00 +4°C° 0 mm 3 mps 754 mmHg 73%
    14:00 +4°C° 0 mm 3 mps 754 mmHg 70%
    15:00 +4°C° 0 mm 3 mps 754 mmHg 68%
    16:00 +4°C° 0 mm 2 mps 754 mmHg 71%
    17:00 +3°C° 0 mm 2 mps 755 mmHg 74%
    18:00 +2°C° 0 mm 2 mps 755 mmHg 76%
    19:00 +2°C° 0 mm 2 mps 755 mmHg 77%
    20:00 +2°C° 0 mm 2 mps 756 mmHg 77%
    21:00 +1°C° 0 mm 2 mps 756 mmHg 78%
    22:00 +1°C° 0 mm 2 mps 756 mmHg 77%
    23:00 +1°C° 0 mm 2 mps 757 mmHg 77%

    20 December, Wednesday

    Time Temperature Precipitation Wind Pressure Humidity
    00:00 +1°C° 0 mm 2 mps 757 mmHg 77%
    01:00 +2°C° 0 mm 1 mps 757 mmHg 78%
    02:00 +2°C° 0 mm 1 mps 758 mmHg 78%
    03:00 +1°C° 0 mm 1 mps 758 mmHg 78%
    04:00 +1°C° 0 mm 1 mps 758 mmHg 78%
    05:00 +1°C° 0 mm 1 mps 758 mmHg 79%
    06:00 +1°C° 0 mm 1 mps 758 mmHg 79%
    07:00 +1°C° 0 mm 1 mps 759 mmHg 78%
    08:00 +1°C° 0 mm 1 mps 759 mmHg 77%
    09:00 +1°C° 0 mm 1 mps 759 mmHg 76%
    10:00 +2°C° 0 mm 1 mps 759 mmHg 71%
    11:00 +2°C° 0 mm 1 mps 759 mmHg 66%
    12:00 +3°C° 0 mm 1 mps 760 mmHg 61%
    13:00 +3°C° 0 mm 1 mps 759 mmHg 61%
    14:00 +3°C° 0 mm 2 mps 759 mmHg 60%
    15:00 +3°C° 0 mm 2 mps 759 mmHg 60%
    16:00 +2°C° 0 mm 2 mps 759 mmHg 63%
    17:00 +2°C° 0 mm 2 mps 759 mmHg 67%
    18:00 +1°C° 0 mm 2 mps 759 mmHg 71%
    19:00 +1°C° 0 mm 2 mps 759 mmHg 72%
    20:00 -1°C° 0 mm 3 mps 759 mmHg 73%
    21:00 -1°C° 0 mm 3 mps 759 mmHg 75%
    22:00 -1°C° 0 mm 3 mps 759 mmHg 75%
    23:00 -1°C° 0 mm 3 mps 759 mmHg 76%

    21 December, Thursday

    Time Temperature Precipitation Wind Pressure Humidity
    00:00 -1°C° 0 mm 3 mps 759 mmHg 77%
    01:00 -1°C° 0 mm 3 mps 758 mmHg 79%
    02:00 0°C° 0 mm 3 mps 758 mmHg 82%
    03:00 0°C° 0 mm 3 mps 758 mmHg 85%
    04:00 0°C° 0.1 mm 3 mps 758 mmHg 88%
    05:00 0°C° 0.1 mm 4 mps 757 mmHg 91%
    06:00 0°C° 0.1 mm 4 mps 757 mmHg 94%
    07:00 0°C° 0.3 mm 4 mps 757 mmHg 94%
    08:00 0°C° 0.3 mm 4 mps 757 mmHg 94%
    09:00 +1°C° 0.3 mm 4 mps 756 mmHg 94%
    10:00 +1°C° 0.3 mm 4 mps 756 mmHg 92%
    11:00 +1°C° 0.3 mm 4 mps 755 mmHg 91%
    12:00 +1°C° 0.3 mm 4 mps 755 mmHg 89%
    13:00 +1°C° 0.3 mm 4 mps 754 mmHg 88%
    14:00 +1°C° 0.3 mm 5 mps 754 mmHg 88%
    15:00 +1°C° 0.3 mm 5 mps 753 mmHg 87%
    16:00 0°C° 0.4 mm 5 mps 753 mmHg 88%
    17:00 0°C° 0.4 mm 5 mps 752 mmHg 89%
    18:00 0°C° 0.4 mm 5 mps 752 mmHg 90%
    19:00 0°C° 0.5 mm 4 mps 752 mmHg 90%
    20:00 0°C° 0.5 mm 4 mps 752 mmHg 91%
    21:00 0°C° 0.5 mm 4 mps 751 mmHg 92%
    22:00 0°C° 0.1 mm 4 mps 751 mmHg 92%
    23:00 +1°C° 0.1 mm 3 mps 750 mmHg 93%

    22 December, Friday

    Time Temperature Precipitation Wind Pressure Humidity
    00:00 +1°C° 0.1 mm 3 mps 750 mmHg 93%
    01:00 +1°C° 0.1 mm 3 mps 750 mmHg 94%
    02:00 +1°C° 0.1 mm 3 mps 750 mmHg 94%
    03:00 +2°C° 0.1 mm 2 mps 749 mmHg 95%
    04:00 +2°C° 0.2 mm 2 mps 749 mmHg 95%
    05:00 +2°C° 0.2 mm 2 mps 749 mmHg 96%
    06:00 +3°C° 0.2 mm 1 mps 748 mmHg 97%
    07:00 +3°C° 0.1 mm 1 mps 748 mmHg 97%
    08:00 +2°C° 0.1 mm 2 mps 748 mmHg 97%
    09:00 +2°C° 0.1 mm 2 mps 748 mmHg 96%
    10:00 +2°C° 0.1 mm 2 mps 748 mmHg 95%
    11:00 +3°C° 0.1 mm 2 mps 748 mmHg 94%
    12:00 +2°C° 0.1 mm 3 mps 748 mmHg 92%
    13:00 +2°C° 0.1 mm 3 mps 748 mmHg 92%
    14:00 +2°C° 0.1 mm 3 mps 748 mmHg 91%
    15:00 +1°C° 0.1 mm 3 mps 748 mmHg 91%
    16:00 0°C° 0.1 mm 4 mps 748 mmHg 90%
    17:00 0°C° 0.1 mm 4 mps 748 mmHg 89%
    18:00 -1°C° 0.1 mm 4 mps 749 mmHg 89%
    19:00 -1°C° 0 mm 4 mps 749 mmHg 88%
    20:00 -1°C° 0 mm 4 mps 749 mmHg 88%
    21:00 -2°C° 0 mm 4 mps 749 mmHg 87%
    22:00 -2°C° 0 mm 4 mps 749 mmHg 87%
    23:00 -2°C° 0 mm 4 mps 749 mmHg 86%
    Show more